Location: Cerbedi�res
(48.2182°N, 1.4849°W)
Time: 02:45:20
(UTC+00:00)

Ariane Rocket - Pass Details

Date: 03 March 2021
Orbit: 759 x 771 km, 98.7° (Epoch: 12 April)

Event Time Altitude Azimuth Distance (km) Brightness Sun altitude
Exits shadow 18:42:04 10° 108° (ESE) 2,353 4.9 -8.9°
Reaches altitude 10° 18:42:11 10° 107° (ESE) 2,315 4.9 -8.9°
Maximum altitude 18:45:59 22° 59° (ENE) 1,658 4.3 -9.6°
Drops below altitude 10° 18:49:47 10° 11° (N) 2,323 5.4 -10.2°
Sets 18:52:34 0° 356° (N) 3,253 6.3 -10.6°
